This demonstration page uses our WeatherBlox Daily Observations layout. Learn more.

Left ArrowRight Arrow

39.29038, -76.61219

Hourly Observations for December 26, 2020

Temp ( °F °C ) Dew Point ( °F °C ) Humidity (%) Winds ( mph kmh ) Pressure ( in mb ) Visibility ( mi km ) Precip ( " mm )
12:54 am 00:54 Mostly Clear 23 -5 6 -14.4 48 48 WSW 13 20 29.94 1014 10 16 0.00 0.00
1:54 am 01:54 Mostly Clear 24 -4.4 6 -14.4 46 46 W 12 19 29.96 1014 10 16 0.00 0.00
2:54 am 02:54 Mostly Clear 23 -5 7 -13.9 50 50 W 8 13 29.98 1015 10 16 0.00 0.00
3:54 am 03:54 Mostly Clear 23 -5 7 -13.9 50 50 WSW 7 11 29.98 1015 10 16 0.00 0.00
4:54 am 04:54 Mostly Cloudy 24 -4.4 7 -13.9 48 48 WSW 8 13 29.99 1016 10 16 0.00 0.00
5:54 am 05:54 Mostly Cloudy 24 -4.4 8 -13.3 50 50 WSW 7 11 30.01 1016 10 16 0.00 0.00
6:54 am 06:54 Mostly Cloudy 24 -4.4 7 -13.9 48 48 SW 6 9 30.02 1017 10 16 0.00 0.00
7:54 am 07:54 Mostly Cloudy 24 -4.4 8 -13.3 50 50 SW 6 9 30.03 1017 10 16 0.00 0.00
8:54 am 08:54 Mostly Cloudy 25 -3.9 9 -12.8 50 50 WSW 10 17 30.04 1017 10 16 0.00 0.00
9:54 am 09:54 Mostly Sunny 28 -2.2 8 -13.3 43 43 WSW 15 24 30.05 1018 10 16 0.00 0.00
10:54 am 10:54 Mostly Sunny 30 -1.1 8 -13.3 39 39 WSW 10 17 30.04 1017 10 16 0.00 0.00
11:54 am 11:54 Partly Cloudy 32 0 10 -12.2 40 40 WSW 14 22 30.00 1016 10 16 0.00 0.00
12:54 pm 12:54 Partly Cloudy 33 0.6 10 -12.2 38 38 W 12 19 29.98 1015 10 16 0.00 0.00
1:54 pm 13:54 Partly Cloudy 33 0.6 11 -11.7 40 40 WSW 10 17 29.99 1016 10 16 0.00 0.00
2:54 pm 14:54 Mostly Cloudy 33 0.6 10 -12.2 38 38 WSW 13 20 29.98 1015 10 16 0.00 0.00
3:54 pm 15:54 Mostly Cloudy 32 0 11 -11.7 41 41 WNW 12 19 29.99 1016 10 16 0.00 0.00
4:54 pm 16:54 Mostly Cloudy 32 0 11 -11.7 41 41 W 8 13 30.01 1016 10 16 0.00 0.00
5:54 pm 17:54 Mostly Cloudy 32 0 11 -11.7 41 41 W 10 17 30.02 1017 10 16 0.00 0.00
6:54 pm 18:54 Mostly Cloudy 32 0 12 -11.1 43 43 W 8 13 30.05 1018 10 16 0.00 0.00
7:54 pm 19:54 Mostly Cloudy 32 0 13 -10.6 45 45 WNW 8 13 30.07 1018 10 16 0.00 0.00
8:54 pm 20:54 Mostly Cloudy 32 0 12 -11.1 43 43 NNW 10 17 30.09 1019 10 16 0.00 0.00
9:54 pm 21:54 Mostly Cloudy 31 -0.6 13 -10.6 47 47 NW 10 17 30.12 1020 10 16 0.00 0.00
10:54 pm 22:54 Mostly Cloudy 30 -1.1 15 -9.4 54 54 WNW 7 11 30.14 1021 10 16 0.00 0.00
11:54 pm 23:54 Partly Cloudy 28 -2.2 15 -9.4 58 58 WNW 6 9 30.14 1021 10 16 0.00 0.00

Powered by AerisWeather